Hourly Data Report for October 11, 2012

All times are specified in Local Standard Time (LST). Add 1 hour to adjust for Daylight Saving Time where and when it is observed.

ST LEONARD CS
NEW BRUNSWICK

47°09'28.050" N
67°49'55.014" W
245.00 m
810I001
71019
WIY

Download Data

Hourly Data (October 2012)
Hourly Data Report for October 11, 2012
Temp Definition
°C
Dew Point Temp Definition
°C
Rel Hum Definition
%
Wind Dir Definition
10's deg

Wind Spd Definition
km/h
Visibility Definition
km
Stn Press Definition
kPa
Hmdx Definition


Wind Chill Definition


Weather Definition


TIME
00:00 10.2 9.6 96 27 19   97.21     LegendNANA
01:00 9.3 8.9 97 30 9   97.11     LegendNANA
02:00 9.0 8.4 96 26 15   97.13     LegendNANA
03:00 8.0 7.1 94 28 15   97.10     LegendNANA
04:00 7.2 6.5 95   0   97.04     LegendNANA
05:00 7.0 6.3 95 27 7   97.00     LegendNANA
06:00 5.2 4.0 92 30 20   97.10     LegendNANA
07:00 4.5 3.5 93 29 15   97.18     LegendNANA
08:00 5.2 3.8 91 27 11   97.26     LegendNANA
09:00 5.7 3.6 86 27 17   97.34     LegendNANA
10:00 3.7 1.9 88 29 24   97.46     LegendNANA
11:00 5.9 3.1 82 28 20   97.54     LegendNANA
12:00 6.0 0.3 67 28 24   97.62     LegendNANA
13:00 6.0 -1.6 58 28 24   97.67     LegendNANA
14:00 6.3 -2.6 53 28 26   97.75     LegendNANA
15:00 6.6 -3.0 50 27 20   97.83     LegendNANA
16:00 6.4 -3.3 50 26 20   97.99     LegendNANA
17:00 5.6 -3.8 51 27 19   98.16     LegendNANA
18:00 4.8 -4.4 51 27 13   98.23     LegendNANA
19:00 3.7 -3.6 59 26 9   98.33     LegendNANA
20:00 3.2 -3.5 61 26 9   98.40     LegendNANA
21:00 1.9 -2.7 72 22 6   98.40     LegendNANA
22:00 1.4 -3.0 72 22 7   98.42     LegendNANA
23:00 0.5 -3.1 77 21 7   98.43     LegendNANA

Notes on Data Quality.

Legend

  • E = Estimated
  • M = Missing
  • NA = Not Available
  • ‡ = Partner data that is not subject to review by the National Climate Archives
Date modified: